Skip Page Navigation
NASA JPL Caltech
NASA Logo - Jet Propulsion Laboratory + View the NASA Portal
+ Center for Near-Earth Object Studies
JPL Home Earth Solar System Stars & Galaxies Technology
JPL Solar System Dynamics
BODIES ORBITS EPHEMERIDES TOOLS PHYSICAL DATA DISCOVERY FAQ SITE MAP
JPL Small-Body Database Browser
Search: [ help ]  
226935 (2004 TV292)
Classification: Main-belt Asteroid          SPK-ID: 2226935
Ephemeris | Orbit Diagram | Orbital Elements | Mission Design | Physical Parameters | Discovery Circumstances | Close-Approach Data ]

[ show orbit diagram ]
Orbital Elements at Epoch 2459000.5 (2020-May-31.0) TDB
Reference: JPL 15 (heliocentric ecliptic J2000)
 Element Value Uncertainty (1-sigma)   Units 
e .03660054684818909 5.1151e-08  
a 2.861291902269909 2.8191e-08 au
q 2.756567053954535 1.5263e-07 au
i 1.629382743677084 6.5752e-06 deg
node 191.7085471833477 0.00020988 deg
peri 258.6451051758621 0.00023399 deg
M 18.34021910186918 0.0001002 deg
tp 2458910.437562986576
(2020-Mar-01.93756299)
0.00049224 TDB
period 1767.834786746256
4.84
2.6127e-05
7.153e-08
d
yr
n .2036389388301318 3.0096e-09 deg/d
Q 2.966016750585283 2.9223e-08 au
  Orbit Determination Parameters
   # obs. used (total)      201  
   data-arc span      7385 days (20.22 yr)  
   first obs. used      1999-09-14  
   last obs. used      2019-12-03  
   planetary ephem.      DE431  
   SB-pert. ephem.      SB431-N16  
   condition code      0  
   norm. resid. RMS      .64403  
   source      ORB  
   producer      Otto Matic  
   solution date      2019-Dec-14 15:37:16  

Additional Information
 Earth MOID = 1.77367 au 
 Jupiter MOID = 2.09892 au 
 T_jup = 3.300 
[ show covariance matrix ]

Ephemeris | Orbit Diagram | Orbital Elements | Mission Design | Physical Parameters | Discovery Circumstances | Close-Approach Data ]

Physical Parameter Table
Parameter Symbol Value Units Sigma Reference Notes
absolute magnitude H 16.6   n/a MPO418211  

226935 (2004 TV292)          Discovered 2004-Oct-10 by Spacewatch at Kitt Peak
Reference: 20091202/Numbers.arcLast Updated: 2009-12-04

[ show close-approach data ]
Alternate Designations
 2004 TV292 = 2006 BY24 
Ephemeris | Orbit Diagram | Orbital Elements | Mission Design | Physical Parameters | Discovery Circumstances | Close-Approach Data ]
ABOUT SSD CREDITS/AWARDS PRIVACY/COPYRIGHT GLOSSARY LINKS
FirstGov 2020-Oct-31 22:11 UT
(server date/time)  
NASA Home Page
Site Manager:   Ryan S. Park
Webmaster  Alan B. Chamberlin